Waarnemingen

Advertentie
Mijn weer
Groningen Eelde, Nederland (6280): temperatuur & dauwpunt: 15.01.2017 11:00:00 - 21.01.2017 11:00:00 (CET)Groningen Eelde, Nederland (6280): temperatuur 5cm: 15.01.2017 11:00:00 - 21.01.2017 11:00:00 (CET)Groningen Eelde, Nederland (6280): windsnelheid & windstoten: 15.01.2017 11:00:00 - 21.01.2017 11:00:00 (CET)Groningen Eelde, Nederland (6280): windrichting: 15.01.2017 11:00:00 - 21.01.2017 11:00:00 (CET)Groningen Eelde, Nederland (6280): luchtdruk: 15.01.2017 11:00:00 - 21.01.2017 11:00:00 (CET)Groningen Eelde, Nederland (6280): zicht: 15.01.2017 11:00:00 - 21.01.2017 11:00:00 (CET)Groningen Eelde, Nederland (6280): neerslag: 15.01.2017 11:00:00 - 21.01.2017 11:00:00 (CET)
Datum & Tijd tt [°C] td [°C] tt 5cm [°C] ff [km/u] ff [kn] fx [km/u] fx [kn] dd ppp [hPa] vv [km] rr [mm]
21.01.2017 11:00:00 2,1 1,6 2,1 5 3 11 6 O 1032,5 2,6 0,0
21.01.2017 10:00:00 1,6 1,5 1,5 8 4 11 6 O 1032,9 2,0 0,0
21.01.2017 09:00:00 1,3 1,1 1,1 7 4 7 4 ONO 1032,8 1,8 0,0
21.01.2017 08:00:00 1,3 1,3 1,0 5 3 11 6 NO 1032,5 1,3 0,0
21.01.2017 07:00:00 1,1 1,1 0,9 4 2 7 4 ONO 1032,6 1,5 0,0
21.01.2017 06:00:00 1,0 0,8 0,8 4 2 7 4 - 1032,9 1,2 0,0
21.01.2017 05:00:00 0,8 0,7 0,7 2 1 7 4 - 1033,2 0,7 0,0
21.01.2017 04:00:00 0,8 0,8 0,7 4 2 4 2 - 1033,5 0,4 0,0
21.01.2017 03:00:00 0,8 0,8 0,7 2 1 4 2 - 1033,8 0,2 0,0
21.01.2017 02:00:00 0,9 0,9 0,8 2 1 7 4 - 1033,7 0,2 0,0
21.01.2017 01:00:00 0,9 0,8 0,8 2 1 4 2 O 1034,5 0,3 0,0
21.01.2017 00:00:00 1,0 1,0 0,9 4 2 7 4 - 1034,5 2,0 0,0
20.01.2017 23:00:00 1,0 0,7 0,8 2 1 4 2 - 1034,9 2,3 0,0
20.01.2017 22:00:00 1,0 1,0 1,0 2 1 4 2 ZZW 1034,9 2,5 0,0
20.01.2017 21:00:00 1,2 1,1 0,9 4 2 7 4 ONO 1035,1 3,0 0,0
20.01.2017 20:00:00 0,8 0,2 0,6 4 2 4 2 ZO 1035,1 4,6 0,0
20.01.2017 19:00:00 1,3 0,1 0,9 4 2 7 4 ONO 1035,2 9 0,0
20.01.2017 18:00:00 1,4 0,5 1,1 4 2 4 2 NO 1035,3 10 0,0
20.01.2017 17:00:00 1,9 0,7 1,6 2 1 4 2 - 1035,4 10 0,0
20.01.2017 16:00:00 2,6 0,7 2,4 4 2 7 4 N 1035,5 10 0,0
20.01.2017 15:00:00 2,9 -0,2 2,9 2 1 7 4 - 1035,3 10 0,0
20.01.2017 14:00:00 2,2 -0,8 2,1 5 3 7 4 ZW 1035,8 10 0,0
20.01.2017 13:00:00 1,3 -1,7 1,4 2 1 4 2 - 1036,3 10 0,0
20.01.2017 12:00:00 0,4 -2,4 0,6 4 2 7 4 - 1036,7 10 0,0
20.01.2017 11:00:00 -1,8 -2,8 -1,1 2 1 7 4 - 1037,0 10 0,0
20.01.2017 10:00:00 -4,5 -5,4 -5,3 2 1 7 4 - 1036,8 5 0,0
20.01.2017 09:00:00 -6,3 -7,2 -8,3 0 0 4 2 N 1036,8 6 0,0
20.01.2017 08:00:00 -6,2 -7,1 -8,7 4 2 4 2 ZW 1036,6 5 0,0
20.01.2017 07:00:00 -6,5 -7,6 -8,7 2 1 4 2 Z 1036,5 5 0,0
20.01.2017 06:00:00 -6,5 -7,5 -8,6 0 0 4 2 N 1036,8 4,3 0,0
20.01.2017 05:00:00 -6,4 -7,2 -8,9 2 1 4 2 - 1036,9 2,2 0,0
20.01.2017 04:00:00 -5,9 -6,8 -8,8 2 1 4 2 Z 1037,0 2,5 0,0
20.01.2017 03:00:00 -6,0 -6,2 -8,7 2 1 4 2 ONO 1037,1 3,4 0,0
20.01.2017 02:00:00 -5,9 -6,0 -8,6 2 1 4 2 ZZW 1037,2 2,1 0,0
20.01.2017 01:00:00 -5,5 -5,8 -8,7 0 0 4 2 N 1037,5 0,5 0,0
20.01.2017 00:00:00 -5,7 -6,3 -8,7 0 0 4 2 N 1037,8 2,7 0,0
19.01.2017 23:00:00 -5,7 -6,1 -8,4 2 1 4 2 - 1038,0 0,3 0,0
19.01.2017 22:00:00 -5,4 -5,9 -8,2 2 1 4 2 ZW 1038,2 0,9 0,0
19.01.2017 21:00:00 -4,2 -4,3 -7,6 2 1 4 2 - 1037,9 3,5 0,0
19.01.2017 20:00:00 -4,5 -5,0 -7,3 4 2 7 4 Z 1038,1 6 0,0
19.01.2017 19:00:00 -3,7 -4,3 -6,7 2 1 7 4 ZZW 1037,9 5 0,0
19.01.2017 18:00:00 -2,9 -4,2 -5,3 4 2 7 4 - 1037,8 9 0,0
19.01.2017 17:00:00 -0,1 -2,7 -1,9 4 2 7 4 ZW 1037,6 10 0,0
19.01.2017 16:00:00 2,3 -1,9 2,8 4 2 7 4 ZZW 1037,7 10 0,0
19.01.2017 15:00:00 2,4 -2,3 2,1 5 3 7 4 ZZW 1037,9 10 0,0
19.01.2017 14:00:00 1,7 -2,8 2,1 5 3 7 4 ZW 1038,2 10 0,0
19.01.2017 13:00:00 0,7 -2,5 1,3 4 2 7 4 - 1038,5 8 0,0
19.01.2017 12:00:00 -0,6 -2,5 0,1 5 3 7 4 ZZW 1038,9 7 0,0
19.01.2017 11:00:00 -1,2 -2,5 -0,5 5 3 7 4 ZZW 1038,9 7 0,0
19.01.2017 10:00:00 -1,9 -2,9 -1,4 4 2 7 4 - 1039,1 6 0,0
19.01.2017 09:00:00 -2,4 -3,1 -2,4 7 4 7 4 Z 1038,7 4,6 0,0
19.01.2017 08:00:00 -3,2 -3,5 -3,6 4 2 7 4 Z 1038,5 3,1 0,0
19.01.2017 07:00:00 -4,7 -5,4 -5,4 4 2 7 4 ZW 1038,0 2,7 0,0
19.01.2017 06:00:00 -5,8 -6,3 -7,6 4 2 7 4 ZZO 1038,4 1,8 0,0
19.01.2017 05:00:00 -4,4 -5,2 -7,0 2 1 4 2 - 1039,0 2,3 0,0
19.01.2017 04:00:00 -3,4 -3,5 -5,0 4 2 7 4 Z 1039,0 2,6 0,0
19.01.2017 03:00:00 -2,7 -3,3 -4,6 4 2 4 2 - 1038,8 2,8 0,0
19.01.2017 02:00:00 -2,1 -2,8 -2,1 4 2 7 4 Z 1038,9 3,0 0,0
19.01.2017 01:00:00 -2,2 -2,8 -2,1 4 2 7 4 - 1039,0 2,8 0,0
19.01.2017 00:00:00 -2,5 -3,1 -2,5 4 2 7 4 Z 1039,0 2,9 0,0
18.01.2017 23:00:00 -3,1 -3,7 -3,5 5 3 7 4 Z 1039,4 3,0 0,0
18.01.2017 22:00:00 -4,3 -4,9 -6,5 2 1 4 2 OZO 1039,4 2,0 0,0
18.01.2017 21:00:00 -3,4 -4,0 -5,0 5 3 7 4 Z 1039,4 3,0 0,0
18.01.2017 20:00:00 -2,8 -3,4 -3,8 4 2 7 4 Z 1039,6 3,0 0,0
18.01.2017 19:00:00 -2,1 -2,6 -1,9 5 3 7 4 ZZW 1039,7 3,3 0,0
18.01.2017 18:00:00 -2,1 -2,3 -1,9 5 3 11 6 Z 1039,8 3,3 0,0
18.01.2017 17:00:00 -1,9 -2,5 -1,6 5 3 7 4 Z 1039,7 3,5 0,0
18.01.2017 16:00:00 -2,0 -2,7 -1,6 5 3 7 4 ZZW 1040,1 4,3 0,0
18.01.2017 15:00:00 -2,1 -2,7 -1,3 4 2 7 4 - 1039,8 3,4 0,0
18.01.2017 14:00:00 -2,2 -3,0 -1,2 5 3 7 4 Z 1040,2 4,7 0,0
18.01.2017 13:00:00 -2,6 -3,4 -2,0 5 3 7 4 ZZW 1040,3 4,7 0,0
18.01.2017 12:00:00 -3,4 -4,3 -2,7 4 2 7 4 - 1040,9 4,8 0,0
18.01.2017 11:00:00 -4,3 -5,0 -3,6 5 3 7 4 Z 1040,9 3,9 0,0
18.01.2017 10:00:00 -5,3 -6,2 -5,2 5 3 7 4 Z 1040,9 4,6 0,0
18.01.2017 09:00:00 -5,6 -6,3 -5,7 4 2 7 4 - 1040,2 3,6 0,0
18.01.2017 08:00:00 -5,8 -6,6 -5,6 5 3 7 4 Z 1039,9 3,4 0,0
18.01.2017 07:00:00 -5,8 -6,6 -5,6 5 3 7 4 Z 1039,6 4,7 0,0
18.01.2017 06:00:00 -6,3 -7,1 -6,4 4 2 7 4 - 1039,7 3,1 0,0
18.01.2017 05:00:00 -6,6 -7,0 -6,5 5 3 7 4 Z 1040,1 1,8 0,0
18.01.2017 04:00:00 -6,8 -7,5 -6,8 4 2 7 4 - 1040,0 2,5 0,0
18.01.2017 03:00:00 -7,1 -7,9 -7,0 5 3 7 4 Z 1040,4 1,7 0,0
18.01.2017 02:00:00 -7,2 -8,0 -7,7 4 2 7 4 Z 1040,2 1,1 0,0
18.01.2017 01:00:00 -7,2 -7,7 -7,2 4 2 7 4 Z 1040,2 0,6 0,0
18.01.2017 00:00:00 -6,8 -7,3 -6,7 4 2 7 4 - 1040,4 0,5 0,0
17.01.2017 23:00:00 -6,5 -7,0 -6,4 4 2 7 4 - 1040,2 0,6 0,0
17.01.2017 22:00:00 -6,3 -6,8 -6,2 4 2 4 2 ZZO 1040,1 0,4 0,0
17.01.2017 21:00:00 -5,8 -5,9 -5,7 5 3 7 4 Z 1040,0 0,7 0,0
17.01.2017 20:00:00 -5,2 -5,6 -5,1 4 2 7 4 - 1039,8 0,4 0,0
17.01.2017 19:00:00 -4,8 -5,2 -4,6 4 2 7 4 - 1039,5 0,3 0,0
17.01.2017 18:00:00 -4,2 -4,4 -4,0 4 2 7 4 - 1039,0 0,3 0,0
17.01.2017 17:00:00 -3,7 -3,7 -3,5 4 2 7 4 - 1039,2 0,5 0,0
17.01.2017 16:00:00 -3,0 -3,4 -2,8 5 3 7 4 Z 1038,7 1,7 0,0
17.01.2017 15:00:00 -2,6 -3,1 -2,0 5 3 7 4 Z 1038,7 2,4 0,0
17.01.2017 14:00:00 -3,1 -3,7 -2,4 5 3 7 4 Z 1038,7 2,5 0,0
17.01.2017 13:00:00 -3,6 -4,3 -3,3 5 3 7 4 ZW 1038,8 2,4 0,0
17.01.2017 12:00:00 -5,0 -5,8 -4,3 5 3 7 4 ZZW 1038,8 2,1 0,0
17.01.2017 11:00:00 -6,1 -6,9 -5,7 5 3 7 4 ZZW 1038,5 0,8 0,0
17.01.2017 10:00:00 -6,4 -7,0 -6,3 5 3 7 4 ZZW 1038,2 1,1 0,0
17.01.2017 09:00:00 -6,7 -7,5 -7,3 4 2 7 4 ZZW 1037,7 3,6 0,0
17.01.2017 08:00:00 -6,7 -7,4 -6,7 5 3 7 4 ZW 1037,3 2,4 0,0
17.01.2017 07:00:00 -7,5 -7,8 -7,3 5 3 - - Z 1036,5 1,0 0,0
17.01.2017 06:00:00 -7,6 -8,1 -7,5 4 2 7 4 ZW 1036,1 0,2 0,0
17.01.2017 05:00:00 -8,1 -8,8 -8,8 4 2 7 4 - 1036,0 3,4 0,0
17.01.2017 04:00:00 -9,0 -10,0 -11,2 5 3 - - ZW 1035,5 9 0,0
17.01.2017 03:00:00 -8,5 -9,5 -11,1 5 3 7 4 Z 1035,0 9 0,0
17.01.2017 02:00:00 -9,1 -9,6 -12,2 5 3 7 4 ZW 1034,9 7 0,0
17.01.2017 01:00:00 -8,4 -8,8 -11,8 2 1 7 4 ZZW 1034,6 6 0,0
17.01.2017 00:00:00 -7,9 -8,6 -11,6 4 2 - - Z 1034,2 5 -
16.01.2017 23:00:00 -7,4 -8,2 -11,1 4 2 7 4 ZW 1033,8 5 0,0
16.01.2017 22:00:00 -7,2 -7,9 -10,7 4 2 7 4 ZW 1033,3 3,7 0,0
16.01.2017 21:00:00 -6,3 -6,5 -9,9 4 2 4 2 ZW 1032,6 2,3 0,0
16.01.2017 20:00:00 -6,3 -6,8 -9,7 2 1 7 4 - 1031,9 1,8 0,0
16.01.2017 19:00:00 -5,1 -5,6 -9,3 4 2 7 4 WZW 1031,4 5 0,0
16.01.2017 18:00:00 -3,9 -4,5 -8,1 2 1 4 2 Z 1030,8 10 0,0
16.01.2017 17:00:00 -2,2 -4,1 -5,0 2 1 7 4 - 1030,5 10 0,0
16.01.2017 16:00:00 0,0 -3,1 -0,5 8 4 11 6 NO 1029,9 10 0,0
16.01.2017 15:00:00 1,0 -3,3 0,6 8 4 11 6 ONO 1029,4 10 0,0
16.01.2017 14:00:00 1,1 -2,3 2,1 4 2 7 4 - 1029,1 10 0,0
16.01.2017 13:00:00 0,7 -2,4 1,5 5 3 11 6 ONO 1028,9 10 0,0
16.01.2017 12:00:00 -0,2 -2,3 0,7 8 4 14 8 O 1028,7 10 0,0
16.01.2017 11:00:00 -1,1 -2,1 -0,5 5 3 7 4 O 1028,4 10 0,0
16.01.2017 10:00:00 -3,5 -4,0 -5,6 5 3 7 4 ONO 1027,9 5 0,0
16.01.2017 09:00:00 -6,7 -6,7 -10,9 2 1 4 2 NO 1027,2 0,3 0,0
16.01.2017 08:00:00 -5,8 -5,9 -10,6 4 2 4 2 NO 1026,5 0,6 0,0
16.01.2017 07:00:00 -4,4 -4,7 -10,3 4 2 7 4 ONO 1026,1 1,5 0,0
16.01.2017 06:00:00 -4,4 -4,6 -9,7 4 2 7 4 NO 1025,5 0,6 0,0
16.01.2017 05:00:00 -2,6 -2,8 -6,4 8 4 11 6 ONO 1024,9 10 0,0
16.01.2017 04:00:00 -1,8 -3,0 -2,6 11 6 14 8 NNO 1024,4 10 0,0
16.01.2017 03:00:00 -1,1 -1,6 -1,6 5 3 18 10 N 1024,1 10 0,0
16.01.2017 02:00:00 -3,4 -3,5 -6,5 4 2 4 2 NNW 1023,9 0,4 0,0
16.01.2017 01:00:00 -2,3 -2,4 -3,5 4 2 4 2 - 1023,7 0,8 0,0
16.01.2017 00:00:00 -2,6 -3,0 -5,2 2 1 11 6 - 1023,5 1,6 0,0
15.01.2017 23:00:00 -1,2 -1,4 -2,3 9 5 14 8 NW 1023,2 10 0,0
15.01.2017 22:00:00 -3,4 -3,9 -6,9 2 1 7 4 NNW 1023,0 0,5 0,0
15.01.2017 21:00:00 -2,0 -2,0 -5,3 4 2 7 4 - 1022,4 0,6 0,0
15.01.2017 20:00:00 -1,1 -1,6 -2,5 4 2 7 4 WNW 1022,1 10 0,0
15.01.2017 19:00:00 0,2 -0,5 -0,9 5 3 22 12 ZW 1021,5 10 0,2
15.01.2017 18:00:00 -0,6 -1,3 -3,0 5 3 7 4 W 1021,2 10 0,0
15.01.2017 17:00:00 0,7 -1,0 -1,4 4 2 11 6 WZW 1020,5 10 0,0
15.01.2017 16:00:00 2,9 0,2 2,8 8 4 18 10 W 1020,2 10 0,0
15.01.2017 15:00:00 3,5 0,0 3,0 9 5 14 8 W 1019,8 10 0,0
15.01.2017 14:00:00 3,6 -0,1 3,5 5 3 18 10 W 1019,5 10 0,0
15.01.2017 13:00:00 3,1 -0,4 3,1 11 6 18 10 WNW 1019,4 10 0,0
15.01.2017 12:00:00 1,8 0,1 1,7 13 7 22 12 W 1019,4 10 0,0
15.01.2017 11:00:00 2,0 -0,3 1,8 11 6 22 12 NNW 1019,2 10 0,1

tt = temperatuur
td = dauwpunt
tt 5cm = temperatuur 5cm
ff = windsnelheid
fx = windstoten
dd = windrichting
ppp = luchtdruk
vv = zicht
rr = neerslag

Weerstations in de omgeving